GW5036 Weather Reports


time (UTC)temp
F
wind
direction
speed
knots
gust
knots
rain 1hr
in
rain 24hr
in
rain mn
in
humidity
%
barometer
mb
20260506033448 49 1 0.0 1.7 0.00 0.00 0.00 53 1000.0
20260506032949 49 79 0.0 0.0 0.00 0.00 0.00 52 1000.0
20260506032449 50 296 0.0 1.7 0.00 0.00 0.00 52 999.9
20260506031949 50 6 0.0 1.7 0.00 0.00 0.00 52 1000.0
20260506031711 50 101 0.0 4.3 0.00 0.00 0.00 52 999.9
20260506030949 50 333 0.0 4.3 0.00 0.00 0.00 51 999.9
20260506030449 50 53 0.0 0.9 0.00 0.00 0.00 52 999.9
20260506025949 50 319 0.0 0.9 0.00 0.00 0.00 51 999.9
20260506025442 50 78 0.0 2.6 0.00 0.00 0.00 51 999.8
20260506025204 51 120 0.0 2.6 0.00 0.00 0.00 50 999.9
20260506024444 51 6 0.9 4.3 0.00 0.00 0.00 50 999.8
20260506023943 51 5 0.9 5.2 0.00 0.00 0.00 50 999.8
20260506023443 51 40 0.0 5.2 0.00 0.00 0.00 51 999.7
20260506022943 51 301 0.0 0.9 0.00 0.00 0.00 51 999.6
20260506022442 51 0 0.0 1.7 0.00 0.00 0.00 50 999.6
20260506022207 51 23 0.9 4.3 0.00 0.00 0.00 52 999.5
20260506021443 52 79 1.7 4.3 0.00 0.00 0.00 52 999.6
20260506021210 51 301 0.9 5.2 0.00 0.00 0.00 53 999.6
20260506020439 51 326 1.7 6.1 0.00 0.00 0.00 52 999.5
20260506015939 52 349 2.6 6.1 0.00 0.00 0.00 58 999.3
20260506015439 52 302 1.7 6.1 0.00 0.00 0.00 58 999.1
20260506014939 52 309 1.7 5.2 0.00 0.00 0.00 57 999.0
20260506014439 52 314 1.7 2.6 0.00 0.00 0.00 55 998.8
20260506013939 52 310 1.7 2.6 0.00 0.00 0.00 55 998.7
20260506013708 52 309 1.7 2.6 0.00 0.00 0.00 53 998.7
20260506012939 52 296 1.7 2.6 0.00 0.00 0.00 53 998.6
20260506012438 53 317 2.6 3.5 0.00 0.00 0.00 54 998.5
20260506011940 53 305 2.6 3.5 0.00 0.00 0.00 50 998.5
20260506011439 53 297 2.6 4.3 0.00 0.00 0.00 52 998.4
20260506010435 53 299 2.6 3.5 0.00 0.00 0.00 51 998.2
20260506005934 53 286 2.6 3.5 0.00 0.00 0.00 47 998.0
20260506005157 54 276 2.6 3.5 0.00 0.00 0.00 47 998.0
20260506004432 54 288 2.6 3.5 0.00 0.00 0.00 47 998.0
20260506003931 54 287 2.6 3.5 0.00 0.00 0.00 48 998.0
20260506003650 54 287 2.6 3.5 0.00 0.00 0.00 48 998.0
20260506003149 54 282 2.6 3.5 0.00 0.00 0.00 46 997.9
20260506002426 54 290 2.6 3.5 0.00 0.00 0.00 47 997.9
20260506001919 54 288 2.6 5.2 0.00 0.00 0.00 46 997.9
20260506001420 55 297 3.5 7.0 0.00 0.00 0.00 45 997.8
20260506000918 55 299 4.3 7.0 0.00 0.00 0.00 43 997.9
20260506000417 55 301 4.3 7.8 0.00 0.00 0.00 44 997.9
20260505235915 55 297 5.2 7.8 0.00 0.00 0.00 43 997.8
20260505235413 55 293 6.1 10.4 0.00 0.00 0.00 42 997.8
20260505234912 55 329 6.1 10.4 0.00 0.00 0.00 42 997.8
20260505234412 55 314 7.0 9.6 0.00 0.00 0.00 42 997.9
20260505233913 55 300 7.0 11.3 0.00 0.00 0.00 42 997.9
20260505233636 55 298 7.8 11.3 0.00 0.00 0.00 42 998.0
20260505232910 55 302 7.8 11.3 0.00 0.00 0.00 43 997.9
20260505232411 55 305 7.8 10.4 0.00 0.00 0.00 45 998.0
20260505231632 55 308 8.7 12.2 0.00 0.00 0.00 46 998.0
20260505230910 55 307 8.7 13.0 0.00 0.00 0.00 46 998.0
20260505230633 55 313 9.6 13.9 0.00 0.00 0.00 49 998.0
20260505225911 55 308 10.4 13.9 0.00 0.00 0.00 46 998.0
20260505225411 55 311 9.6 13.9 0.00 0.00 0.00 41 998.2
20260505225125 56 290 8.7 13.9 0.00 0.00 0.00 47 998.1
20260505224355 55 304 7.8 13.0 0.00 0.00 0.00 44 998.1
20260505223850 55 309 7.8 13.0 0.00 0.00 0.00 45 998.2
20260505223343 55 312 8.7 12.2 0.00 0.00 0.00 42 998.1
20260505222839 56 295 10.4 13.9 0.00 0.00 0.00 41 998.1
20260505222555 56 290 9.6 14.8 0.00 0.00 0.00 40 998.0
20260505221826 56 319 8.7 14.8 0.00 0.00 0.00 42 998.0
20260505221548 56 298 7.8 13.0 0.00 0.00 0.00 44 998.0
20260505220814 55 300 8.7 13.0 0.00 0.00 0.00 41 998.0
20260505220535 55 280 9.6 14.8 0.00 0.00 0.00 42 998.1
20260505215802 55 305 8.7 14.8 0.00 0.00 0.00 40 998.0
20260505215255 55 300 7.0 13.9 0.00 0.00 0.00 42 998.2
20260505214750 55 296 7.8 12.2 0.00 0.00 0.00 45 998.1
20260505214245 55 309 9.6 13.9 0.00 0.00 0.00 42 998.0
20260505213738 55 300 8.7 13.9 0.00 0.00 0.00 40 998.0
20260505213231 55 311 8.7 13.9 0.00 0.00 0.00 40 998.0
20260505212726 55 281 9.6 14.8 0.00 0.00 0.00 46 998.2
20260505212441 56 293 8.7 14.8 0.00 0.00 0.00 43 998.2
20260505211714 55 326 7.8 14.8 0.00 0.00 0.00 45 998.0
20260505211209 55 300 8.7 14.8 0.00 0.00 0.00 44 998.0
20260505210702 55 326 7.8 14.8 0.00 0.00 0.00 46 998.0
20260505210156 55 295 9.6 16.5 0.00 0.00 0.00 45 998.1
20260505205650 55 303 9.6 16.5 0.00 0.00 0.00 40 998.2
20260505205144 55 301 8.7 13.9 0.00 0.00 0.00 42 998.1
20260505204638 55 312 9.6 15.6 0.00 0.00 0.00 41 998.2
20260505204133 55 306 10.4 16.5 0.00 0.00 0.00 42 998.0
20260505203626 55 302 9.6 16.5 0.00 0.00 0.00 42 998.2
20260505203120 55 311 9.6 16.5 0.00 0.00 0.00 41 998.3
20260505202614 55 307 11.3 17.4 0.00 0.00 0.00 43 998.4
20260505202111 55 294 11.3 18.2 0.00 0.00 0.00 38 998.6
20260505201602 55 300 11.3 18.2 0.00 0.00 0.00 38 998.5
20260505201056 55 293 11.3 15.6 0.00 0.00 0.00 42 998.4
20260505200550 55 297 11.3 17.4 0.00 0.00 0.00 37 998.3
20260505200044 55 308 11.3 17.4 0.00 0.00 0.00 41 998.5
20260505195538 55 299 11.3 16.5 0.00 0.00 0.00 37 998.4
20260505195032 55 291 11.3 17.4 0.00 0.00 0.00 38 998.5
20260505194020 55 300 9.6 19.1 0.00 0.00 0.00 43 998.7
20260505193514 55 307 9.6 19.1 0.00 0.00 0.00 43 998.5
20260505193009 54 311 11.3 18.2 0.00 0.00 0.00 39 998.7
20260505192502 55 290 10.4 16.5 0.00 0.00 0.00 43 998.7
20260505192218 54 291 10.4 16.5 0.00 0.00 0.00 39 998.8
20260505191502 55 302 11.3 18.2 0.00 0.00 0.00 39 998.9
20260505191005 55 290 9.6 18.2 0.00 0.00 0.00 37 999.0
20260505190503 54 300 8.7 13.9 0.00 0.00 0.00 38 998.9
20260505190002 54 301 10.4 13.9 0.00 0.00 0.00 36 998.9
20260505185723 54 299 11.3 15.6 0.00 0.00 0.00 38 998.8
20260505185002 54 300 10.4 15.6 0.00 0.00 0.00 37 998.8
20260505184502 54 307 9.6 14.8 0.00 0.00 0.00 39 998.9
20260505184002 54 309 10.4 15.6 0.00 0.00 0.00 40 998.7
20260505183219 53 263 12.2 17.4 0.00 0.00 0.00 39 998.8
20260505182501 53 293 11.3 17.4 0.00 0.00 0.00 40 998.7
20260505182001 54 284 10.4 14.8 0.00 0.00 0.00 39 998.7
20260505181503 54 283 9.6 15.6 0.00 0.00 0.00 39 998.8
20260505181001 54 304 9.6 15.6 0.00 0.00 0.00 39 998.8
20260505180458 53 300 10.4 17.4 0.00 0.00 0.00 42 998.6
20260505180219 53 304 12.2 17.4 0.00 0.00 0.00 41 998.5
20260505175723 53 291 12.2 20.0 0.00 0.00 0.00 39 998.3
20260505174958 53 304 10.4 20.0 0.00 0.00 0.00 39 998.4
20260505174458 53 299 10.4 17.4 0.00 0.00 0.00 42 998.3
20260505173959 53 319 9.6 17.4 0.00 0.00 0.00 38 998.2
20260505173457 53 305 9.6 15.6 0.00 0.00 0.00 39 998.2
20260505172959 53 286 11.3 16.5 0.00 0.00 0.00 40 998.3
20260505172721 53 309 10.4 17.4 0.00 0.00 0.00 42 998.3
20260505171957 53 297 10.4 17.4 0.00 0.00 0.00 46 998.2
20260505171458 53 305 10.4 15.6 0.00 0.00 0.00 44 998.3
20260505170958 53 303 9.6 18.2 0.00 0.00 0.00 42 998.5
20260505170714 53 288 8.7 18.2 0.00 0.00 0.00 39 998.5
20260505170217 53 314 9.6 18.2 0.00 0.00 0.00 39 998.5
20260505165454 53 291 10.4 18.2 0.00 0.00 0.00 42 998.6
20260505164453 52 295 8.7 13.9 0.00 0.00 0.00 41 998.3
20260505163953 52 302 9.6 17.4 0.00 0.00 0.00 44 998.2
20260505163455 52 334 9.6 17.4 0.00 0.00 0.00 45 998.0
20260505162955 52 268 9.6 16.5 0.00 0.00 0.00 46 997.9
20260505162453 52 307 11.3 16.5 0.00 0.00 0.00 48 998.1
20260505161950 52 274 10.4 15.6 0.00 0.00 0.00 43 998.2
20260505161450 52 297 11.3 18.2 0.00 0.00 0.00 42 998.2
20260505160950 52 299 10.4 18.2 0.00 0.00 0.00 43 998.3
20260505160449 52 304 8.7 18.2 0.00 0.00 0.00 46 998.2
20260505160214 51 302 7.8 13.0 0.00 0.00 0.00 49 998.3
20260505152946 51 305 7.8 13.9 0.00 0.00 0.00 44 998.1
20260505152446 51 284 8.7 13.9 0.00 0.00 0.00 45 998.2
20260505151944 51 316 7.0 12.2 0.00 0.00 0.00 50 998.2
20260505151443 51 297 7.8 12.2 0.00 0.00 0.00 48 998.1
20260505150944 50 289 8.7 13.0 0.00 0.00 0.00 48 998.3
20260505150444 50 297 8.7 13.0 0.00 0.00 0.00 48 998.4
20260505140413 49 302 6.1 9.6 0.00 0.00 0.00 53 998.5
20260505130127 48 303 4.3 7.0 0.00 0.00 0.00 55 998.5
20260505124844 48 304 3.5 4.3 0.00 0.00 0.00 57 998.1
20260505124339 48 300 3.5 4.3 0.00 0.00 0.00 57 998.2
20260505123834 48 300 2.6 4.3 0.00 0.00 0.00 57 998.3
20260505123326 48 307 2.6 4.3 0.00 0.00 0.00 56 998.2
20260505122820 48 316 3.5 6.1 0.00 0.00 0.00 57 998.4
20260505122315 48 303 4.3 6.1 0.00 0.00 0.00 59 998.4
20260505121815 48 301 4.3 6.1 0.00 0.00 0.00 57 998.4
20260505121315 48 286 4.3 6.1 0.00 0.00 0.00 58 998.6
20260505121032 48 292 4.3 7.0 0.00 0.00 0.00 60 998.6
20260505120315 48 300 4.3 7.0 0.00 0.00 0.00 57 998.2
20260505115816 48 297 5.2 7.8 0.00 0.00 0.00 58 998.4
20260505115315 48 295 5.2 7.8 0.00 0.00 0.00 59 998.2
20260505114815 48 297 5.2 7.0 0.00 0.00 0.00 61 998.4
20260505114041 48 302 6.1 9.6 0.00 0.00 0.00 61 997.7
20260505113314 48 302 5.2 9.6 0.00 0.00 0.00 61 997.4
20260505112815 48 302 4.3 7.8 0.00 0.00 0.00 63 997.1
20260505112537 48 275 2.6 6.1 0.00 0.00 0.00 62 997.8
20260505111814 48 305 0.9 4.3 0.00 0.00 0.00 61 997.1
20260505111541 48 328 0.9 2.6 0.00 0.00 0.00 60 995.9
20260505110814 48 31 0.9 1.7 0.00 0.00 0.00 61 996.4
20260505101728 49 53 1.7 6.1 0.00 0.00 0.00 60 996.5
20260505101222 49 330 0.9 5.2 0.00 0.00 0.00 59 996.3
20260505100717 49 333 0.9 6.1 0.00 0.00 0.00 60 996.4
20260505100210 49 58 0.9 6.1 0.00 0.00 0.00 60 996.2
20260505095707 49 334 0.9 3.5 0.00 0.00 0.00 58 995.9
20260505095207 49 337 0.9 4.3 0.00 0.00 0.00 56 995.9
20260505094707 49 347 0.9 4.3 0.00 0.00 0.00 57 995.9
20260505094205 49 82 0.9 7.0 0.00 0.00 0.00 57 995.8
20260505093204 49 250 0.9 5.2 0.00 0.00 0.00 57 995.9
20260505092924 49 342 0.9 6.1 0.00 0.00 0.00 57 995.9
20260505092203 50 96 1.7 7.0 0.00 0.00 0.00 57 996.0
20260505091703 50 300 2.6 7.8 0.00 0.00 0.00 56 996.0
20260505091203 50 337 2.6 7.8 0.00 0.00 0.00 56 996.0
20260505090929 50 23 2.6 8.7 0.00 0.00 0.00 57 996.1
20260505090203 50 6 1.7 8.7 0.00 0.00 0.00 58 995.6
20260505085706 50 19 0.9 6.1 0.00 0.00 0.00 60 995.6
20260505084704 51 84 2.6 6.1 0.00 0.00 0.00 60 995.5
20260505084205 51 56 2.6 7.8 0.00 0.00 0.00 59 995.4
20260505083658 51 308 1.7 7.8 0.00 0.00 0.00 61 995.4
20260505083152 51 42 0.9 5.2 0.00 0.00 0.00 58 995.1
20260505082646 51 305 1.7 6.1 0.00 0.00 0.00 60 994.8
20260505082146 52 302 2.6 7.0 0.00 0.00 0.00 58 994.8
20260505081907 52 68 2.6 7.8 0.00 0.00 0.00 58 994.7
20260505081145 52 335 3.5 7.8 0.00 0.00 0.00 58 994.5
20260505080645 52 309 4.3 10.4 0.00 0.00 0.00 60 994.1
20260505080144 52 311 3.5 10.4 0.00 0.00 0.00 59 994.2
20260505075645 52 331 2.6 7.0 0.00 0.00 0.00 57 994.0
20260505075145 53 300 1.7 7.0 0.00 0.00 0.00 57 993.8
20260505074645 53 13 2.6 6.1 0.00 0.00 0.00 55 993.7
20260505074143 53 20 2.6 7.0 0.00 0.00 0.00 55 993.7
20260505073644 53 11 2.6 8.7 0.00 0.00 0.00 55 993.6
20260505073409 53 25 1.7 8.7 0.00 0.00 0.00 55 993.4
20260505072637 54 66 1.7 8.7 0.00 0.00 0.00 56 993.2
20260505072137 54 16 2.6 11.3 0.00 0.00 0.00 57 993.3
20260505071857 55 33 3.5 11.3 0.00 0.00 0.00 59 993.3
20260505071138 55 309 2.6 7.8 0.00 0.00 0.00 57 993.4
20260505070137 55 45 2.6 6.1 0.00 0.00 0.00 59 993.1
20260505065636 55 335 3.5 6.1 0.00 0.00 0.00 59 993.1
20260505065400 55 309 4.3 6.1 0.00 0.00 0.00 54 993.1
20260505064637 56 306 4.3 6.1 0.00 0.00 0.00 53 993.0
20260505064355 56 306 4.3 6.1 0.00 0.00 0.00 52 992.8
20260505063637 56 309 4.3 6.1 0.00 0.00 0.00 54 992.9
20260505063358 57 307 4.3 6.1 0.00 0.00 0.00 53 992.7
20260505062636 57 297 4.3 6.1 0.00 0.00 0.00 49 992.8
20260505062136 57 301 5.2 7.0 0.00 0.00 0.00 52 992.7
20260505061637 58 306 6.1 8.7 0.00 0.00 0.00 51 992.8
20260505061137 58 311 5.2 8.7 0.00 0.00 0.00 48 992.7
20260505060636 58 308 5.2 8.7 0.00 0.00 0.00 52 992.7
20260505060137 58 306 5.2 7.0 0.00 0.00 0.00 52 992.4
20260505055637 58 310 5.2 7.0 0.00 0.00 0.00 53 992.4
20260505055356 58 322 6.1 8.7 0.00 0.00 0.00 52 992.3
20260505054637 59 307 7.0 8.7 0.00 0.00 0.00 49 992.4
20260505054137 59 314 7.8 10.4 0.00 0.00 0.00 49 992.4
20260505053636 59 317 8.7 10.4 0.00 0.00 0.00 48 992.3
20260505053138 59 329 8.7 10.4 0.00 0.00 0.00 46 992.5
20260505052631 59 309 7.8 11.3 0.00 0.00 0.00 46 992.4
20260505052131 59 305 7.0 10.4 0.00 0.00 0.00 47 992.3
20260505051631 59 301 6.1 9.6 0.00 0.00 0.00 49 992.2
20260505051129 59 297 6.1 8.7 0.00 0.00 0.00 47 992.1
20260505050627 60 297 7.0 8.7 0.00 0.00 0.00 48 991.9
20260505050125 60 300 7.0 9.6 0.00 0.00 0.00 46 991.8
20260505041606 61 298 7.8 9.6 0.00 0.00 0.00 44 991.5
20260505041107 61 282 7.0 11.3 0.00 0.00 0.00 44 991.4
20260505040607 62 308 7.0 11.3 0.00 0.00 0.00 45 991.3
20260505040107 62 296 7.0 10.4 0.00 0.00 0.00 45 991.3
20260505035607 62 296 6.1 10.4 0.00 0.00 0.00 47 991.3
20260505034825 63 313 8.7 12.2 0.00 0.00 0.00 47 991.0
20260505034107 63 304 9.6 13.9 0.00 0.00 0.00 48 990.9